www.pogodaiklimat.ru

Погода и климат >> Архив погоды >> Фиджи >> Нэбаууолу


ПОГОДА в Нэбаууолу

  • Прогноз погоды в Нэбаууолу
  • Монитор погоды в Нэбаууолу

АРХИВ ПОГОДЫ в Нэбаууолу

Время (UTC), дата Ветер
(напр.,м/с)
 
Видим.   Явления Облачность Т
(С)
Тd
(С)
f
(%)
Тe
(С)
Тes
(С)
Комфортность P
(гПа)
Po
(гПа)
Тmin
(С)
Tmax
(С)
R
(мм)
R24
(мм)
S
(см)
06 12.02 ЮВ 4 50 км 5/1 750 м
[Cu hum Ci sp]
+28.0 +23.7 77 +38 +38 очень
душно
999.5 995.4
09 12.02 ЮВ 5 50 км 4/3 750 м
[Cu hum Ci sp]
+27.1 +23.6 81 +37 +37 очень
душно
1001.8 997.7
12 12.02 ЮВ 5 20 км 4/3 750 м
[Cu hum Ci sp]
+26.9 +23.4 81 +36 +36 очень
душно
1002.0 997.9 +31.1
15 12.02 ЮВ 5 20 км 3/3 750 м
[Cu hum]
+26.4 +23.1 82 +35 +35 очень
душно
1000.6 996.5
18 12.02 ЮВ 5 50 км 6/3 750 м
[Cu hum Ci sp]
+26.6 +23.9 85 +37 +37 очень
душно
1001.6 997.5
21 12.02 ЮВ 5 50 км 5/4 750 м
[Cu hum Ci sp]
+29.6 +24.6 75 +42 +46 опасность
перегрева
1001.4 997.3
21 13.02 З 5 50 км слаб. ливневой дождь 10/5 720 м
[Cu Sc Ac As]
+26.6 +25.8 95 +39 +39 очень
душно
1004.6 1000.5
00 14.02 СЗ 5 50 км {ливн. осадки} 10/4 720 м
[Cu Sc Ac As]
+27.1 +24.1 84 +38 +40 очень
душно
1003.6 999.5 +25.5 0.0 2
03 14.02 штиль 0 50 км 10/4 720 м
[Cu Sc Ac As]
+28.6 +25.1 81 +41 +44 опасность
перегрева
1002.5 998.4
06 14.02 штиль 0 50 км 10/3 750 м
[Cu Sc Ac As]
+28.0 +25.0 84 +40 +40 очень
душно
1003.7 999.6
09 14.02 СЗ 5 50 км {ливн. осадки} 9/5 750 м
[Cu Sc Ac As]
+27.1 +25.1 89 +39 +39 очень
душно
1005.5 1001.4
12 14.02 З 4 20 км {ливн. осадки} 9/5 750 м
[Cu Sc Ac As]
+26.7 +25.6 94 +39 +39 очень
душно
1006.6 1002.5 +29.3 0.3
15 14.02 З 3 20 км {ливн. осадки} 9/5 750 м
[Cu Sc Ac As]
+26.1 +25.0 94 +37 +37 очень
душно
1004.6 1000.5
18 14.02 штиль 0 50 км {ливн. осадки} 9/4 750 м
[Cu Sc Ac As]
+26.3 +24.9 92 +38 +38 очень
душно
1005.2 1001.1 1
21 14.02 СЗ 5 50 км слаб. ливневой дождь 10/5 750 м
[Cu Sc Ac As]
+28.5 +25.6 84 +42 +42 опасность
перегрева
1006.1 1002.0
21 15.02 штиль 0 50 км 4/1 750 м
[Cu hum Ac trans]
+31.3 +26.9 78 +49 +58 опасность
перегрева
1007.7 1003.6
00 16.02 штиль 0 50 км 5/5 750 м
[Cu Sc]
+32.1 +25.9 70 +48 +62 опасность
перегрева
1006.9 1002.8 +26.4 0.3
03 16.02 нст 1 50 км {ливн. осадки} 5/3 750 м
[Cu hum Ac trans]
+31.6 +28.1 82 +52 +61 опасность
перегрева
1005.2 1001.2
06 16.02 З 5 50 км слаб. дождь 6/6 750 м
[Cu Sc]
+30.4 +26.2 78 +46 +46 опасность
перегрева
1006.0 1001.9 0.4
09 16.02 штиль 0 50 км {дождь} 8/8 750 м
[Cu Sc]
+27.0 +24.1 84 +37 +37 очень
душно
1008.0 1003.9
12 16.02 штиль 0 20 км {дождь} 6/6 750 м
[Cu Sc]
+26.5 +24.8 90 +38 +38 очень
душно
1008.7 1004.6 +33.7 0.3
15 16.02 штиль 0 20 км 8/8 750 м
[Cu Sc]
+26.1 +24.7 92 +37 +37 очень
душно
1006.2 1002.1
18 16.02 штиль 0 50 км 5/3 750 м
[Cu hum Ac trans]
+27.1 +24.4 85 +38 +38 очень
душно
1006.6 1002.5
21 16.02 штиль 0 50 км 3/3 750 м
[Cu hum]
+31.6 +24.9 68 +45 +56 опасность
перегрева
1007.6 1003.5
21 17.02 ЮВ 5 50 км 3/3 750 м
[Cu hum]
+30.9 +26.0 75 +46 +51 опасность
перегрева
1008.8 1004.7
00 18.02 ЮВ 5 50 км {дождь} 6/6 720 м
[Cu Sc]
+29.6 +26.0 81 +44 +50 опасность
перегрева
1008.4 1004.3 +25.2 0.0
03 18.02 З 5 50 км 6/6 720 м
[Cu Sc]
+27.6 +24.6 84 +39 +42 очень
душно
1006.9 1002.8
06 18.02 штиль 0 20 км 6/4 720 м
[Cu Sc Ac trans]
+29.6 +26.1 82 +45 +45 опасность
перегрева
1007.3 1003.2
09 18.02 штиль 0 50 км 6/6 750 м
[Cu Sc]
+27.1 +25.4 90 +39 +39 очень
душно
1009.3 1005.2
12 18.02 штиль 0 20 км 6/6 750 м
[Cu Sc]
+26.5 +25.2 93 +38 +38 очень
душно
1010.2 1006.1 +32.8
15 18.02 штиль 0 20 км 5/5 1440 м
[Cu Sc]
+26.1 +24.7 92 +37 +37 очень
душно
1008.0 1003.9
18 18.02 штиль 0 50 км 5/5 750 м
[Cu Sc]
+25.5 +23.5 89 +35 +35 очень
душно
1008.1 1004.0
21 18.02 штиль 0 50 км 4/3 750 м
[Cu hum Ci fib]
+31.1 +25.1 70 +45 +55 опасность
перегрева
1009.5 1005.4

 

Местоположение метеостанции Нэбаууолу (Фиджи): широта -17.00 долгота 178.70 высота над уровнем моря 36 м.

В архиве по умолчанию представлена погода в Нэбаууолу за последнюю неделю. Архивные данные за месяц целиком и за предыдущие месяцы, начиная с января 2011 года, Вы можете получить, выбрав интересующий диапазон дат из раскрывающегося списка и нажав кнопку "Ввод!".


*Определитесь, кто Вы:
робот инопланетянин человек

Внимание! Время в таблицах - всемирное. Для получения местного времени необходимо прибавить поправку, которая равна 12 ч.

Смотрите также архив погоды в соседних городах и на ближайших метеорологических станциях:

Погода на Вануа Мбалаву (Фиджи) (36 км)
Погода в Ракираки (Фиджи) (65 км)
Погода в Ламбасе (Фиджи) (100 км)
Погода в Наусори (Фиджи) (118 км)
Погода в Ясава-и-Рара (Фиджи) (124 км)
Погода в Сигатоке (Фиджи) (132 км)
Погода в Нанди (Фиджи) (157 км)
Погода на Вануа Леву (Фиджи) (167 км)
Погода на Острове Вива (Фиджи) (192 км)
Погода в Вьюнисея (Фиджи) (235 км)

Пояснения к столбцам:

Ветер - указаны скорость ветра в м/с - средняя за 10 мин, порывы в срок и между сроками (в фигурных скобках) и направление, откуда дует ветер: С - северный, СВ - северо-восточный, В - восточный, ЮВ - юго-восточный, Ю - южный, ЮЗ - юго-западный, З - западный, СЗ - северо-западный.
Видимость - горизонтальная дальность видимости в метрах или километрах. При видимости от 1 до 10 км при отсутствии осадков обычно наблюдается дымка, при ухудшении видимости до 1 км и менее - туман. В сухую погоду видимость может ухудшаться дымом, пылью или мглою.
Явления - указаны атмосферные явления, наблюдавшиеся в срок или в последний час перед сроком; фигурными скобками обозначены явления, наблюдавшиеся между сроками (за 1-3 часа до срока); квадратными скобками обозначены град или гололедные отложения с указанием их диаметра в мм.
Облачность - указаны через наклонную черту общая и нижняя облачность в баллах и высота нижней границы облаков в метрах; квадратными скобками обозначены формы облаков: Ci - перистые, Cs - перисто-слоистые, Cc - перисто-кучевые, Ac - высококучевые, As - высокослоистые, Sc - слоисто-кучевые, Ns - слоисто-дождевые, Cu - кучевые, Cb - кучево-дождевые. Подробнее классификацию облаков см. в Атласе облаков (PDF).
T - Температура воздуха - температура, измеренная на высоте 2 м над землей.
Td - Температура точки росы - температура, при понижении до которой содержащийся в воздухе водяной пар достигнет насыщения.
f - Относительная влажность воздуха - влажноcть воздуха, измеренная на высоте 2 м над землей.
Te - Эффективная температура - температура, которую ощущает одетый по сезону человек в тени. Характеристика душности погоды. При расчете учитывается влияние влажности воздуха и скорости ветра на теплоощущения человека.
Tes - Эффективная температура на солнце - температура, которую ощущает человек, с поправкой на солнечный нагрев. Характеристика знойности погоды. Зависит от высоты солнца над горизонтом, облачности и скорости ветра. Ночью, в пасмурную погоду, а также при ветре 12 м/с и более поправка равна нулю.
P - Атмосферное давление - приведенное к уровню моря атмосферное давление.
Po - Атмосферное давление - измеренное на уровне метеостанции атмосферное давление.
Tmin - Минимальная температура - минимум температуры воздуха на высоте 2 м над землей.
Tmax - Максимальная температура - максимум температуры воздуха на высоте 2 м над землей.
R - Количество осадков - Количество выпавших осадков за период времени, мм. При наведении курсора мыши на число - период времени, за который выпало указанное количество осадков.
R24 - Количество осадков - Количество выпавших осадков за 24 часа, мм.
S - Снежный покров - Высота снежного покрова, см. При наведении курсора мыши на число - состояние снежного покрова и степень покрытия местности в баллах.